Notices

What's New in latest Release from April 7th, 2021:

- Updated Glossary, including Speed of Maximum Gust, and Total Hourly Precipitation

- Updated national and regional climate services offices contacts and prices information

- Addition of station inventory lists for 1981-2010, 1971-2000, and 1961-1990 Normals.

If you haven't already, please take our survey and provide feedback about our website: https://eccc.sondage-survey.ca/f/LanguageSelection.aspx?s=442ca660-fcf1-47c0-95a9-59707d6fd709

Hourly Data Report for October 16, 2019

CARBERRY CS
MANITOBA
Current Station Operator: ECCC - MSC

49°54'20.900" N
99°21'26.800" W
383.50 m
5010547
71170
WZE

Download Data

Hourly Data (October 2019)
Hourly Data Report for October 16, 2019
TIME
LST
Temp Definition
°C
Dew Point Definition
°C
Rel Hum Definition
%
Precip. Amount Definition
mm

Wind Dir Definition
10's deg

Wind Spd Definition
km/h
Visibility Definition
km
Stn Press Definition
kPa
Hmdx Definition


Wind Chill Definition


Weather Definition


00:00 0.5 0.5 100 0.0   0   97.59     LegendNANA
01:00 0.1 0.1 100 0.0 0 1   97.57     LegendNANA
02:00 -1.0 -1.1 100 0.0 9 2   97.53   -2 LegendNANA
03:00 -0.2 -0.3 100 0.0 0 1   97.51   -1 LegendNANA
04:00 -1.4 -1.4 100 0.0 21 1   97.49   -2 LegendNANA
05:00 -1.2 -1.2 100 0.0   0   97.42     LegendNANA
06:00 -0.8 -0.8 100 0.0 15 2   97.42   -1 LegendNANA
07:00 -0.3 -0.4 100 0.0 13 7   97.35   -3 LegendNANA
08:00 0.0 0.0 100 0.0 16 6   97.35   -2 LegendNANA
09:00 0.5 0.4 100 0.0 14 7   97.30     LegendNANA
10:00 1.3 0.8 97 0.0 16 8   97.28     LegendNANA
11:00 2.0 0.8 92 0.0 16 11   97.20     LegendNANA
12:00 2.4 0.7 88 0.0 14 16   97.07     LegendNANA
13:00 3.0 0.2 82 0.0 15 16   96.99     LegendNANA
14:00 3.5 0.2 79 0.0 16 14   96.93     LegendNANA
15:00 3.3 0.2 80 0.0 15 14   96.86     LegendNANA
16:00 3.5 0.6 81 0.0 10 15   96.83     LegendNANA
17:00 3.2 0.5 83 0.0 11 16   96.74     LegendNANA
18:00 2.1 0.0 86 0.0 12 15   96.74     LegendNANA
19:00 0.6 0.1 96 0.0 11 9   96.78     LegendNANA
20:00 0.7 0.7 100 0.0 13 14   96.75     LegendNANA
21:00 0.3 0.3 100 0.0 13 14   96.71     LegendNANA
22:00 -0.1 -0.1 100 0.0 13 11   96.66   -4 LegendNANA
23:00 -0.3 -0.4 100 0.0 11 10   96.62   -4 LegendNANA

Notes on Data Quality.

Legend

  • E = Estimated
  • M = Missing
  • NA = Not Available*
  • [empty] = Indicates an unobserved value
Date modified: